Regional Weather Roundup
Issued by NWS

Home | Current Version | Previous Version | Text Only | Print | Product List | Glossary Off
Versions: 1 2 3 4 5 6 7 8 9 10 11 12 13 14 15 16 17 18 19 20 21 22 23 24 25 26 27 28 29 30 31 32 33 34 35 36 37 38 39 40 41 42 43 44 45 46 47 48 49 50

000
ASUS44 KMEG 020200
RWRTN
TENNESSEE HOURLY STATE WEATHER ROUNDUP
NATIONAL WEATHER SERVICE MEMPHIS TN
900 PM CDT TUE SEP 01 2015

TNZ002-004-019-021-049-052-054-088>092-020300-
WEST TENNESSEE

CITY           SKY/WX    TMP DP  RH WIND       PRES   REMARKS
MEMPHIS INTL   CLOUDY    84  69  60 SE3       30.07R
NWS MEMPHIS      N/A     81 N/A N/A MISG        N/A
JACKSON        MOCLDY    76  73  91 CALM      30.08R
DYERSBURG      CLOUDY    77  72  83 CALM      30.09R
UNION CITY     CLEAR     75  73  94 CALM      30.08R
PARIS          CLEAR     73  68  83 CALM      30.10S
LEXINGTON      CLEAR     75  72  88 CALM      30.08S
$$

TNZ008-025-027-028-033-062-065-066-020300-
NORTH MIDDLE TENNESSEE

CITY           SKY/WX    TMP DP  RH WIND       PRES   REMARKS
NASHVILLE      MOCLDY    79  67  66 CALM      30.10S
CLARKSVILLE    PTCLDY    77  67  71 CALM      30.10R
COOKEVILLE     PTCLDY    73  72  94 CALM      30.13R
CROSSVILLE     PTCLDY    72  68  87 CALM      30.18R
$$

TNZ061-075-076-078-094-096-097-020300-
SOUTH MIDDLE TENNESSEE

CITY           SKY/WX    TMP DP  RH WIND       PRES   REMARKS
FAYETTEVILLE   CLEAR     73  66  78 CALM      30.11S
TULLAHOMA      CLEAR     72  70  94 CALM      30.14R
WINCHESTER     CLEAR     72  70  94 CALM      30.12S
COLUMBIA       CLEAR     75  75 100 CALM      30.09S
SHELBYVILLE    CLEAR     73  72  94 E3        30.12S
$$

TNZ017-018-042-046-047-020300-
NORTHEAST TENNESSEE

CITY           SKY/WX    TMP DP  RH WIND       PRES   REMARKS
TRI CITIES     PTCLDY    73  68  84 CALM      30.14R
ELIZABETHTON   CLEAR     70  64  83 CALM      30.15S
$$

TNZ012-013-036-069-073-074-020300-
CENTRAL EAST TENNESSEE

CITY           SKY/WX    TMP DP  RH WIND       PRES   REMARKS
KNOXVILLE      MOCLDY    77  68  73 SW3       30.11R
OAK RIDGE      PTCLDY    76  69  79 CALM      30.13R
GATLINBURG     PTCLDY    75  64  69 CALM      30.11R
$$

TNZ083-085-099-020300-
SOUTHEAST TENNESSEE

CITY           SKY/WX    TMP DP  RH WIND       PRES   REMARKS
CHATTANOOGA    PTCLDY    77  69  76 N3        30.10R
$$

SKY/WX REPORTED AS FAIR MEANS FEW OR NO CLOUDS BELOW
12 THOUSAND FEET.




USA.gov is the U.S. government's official web portal to all federal, state and local government web resources and services.